Location: Big Meadows
(38.5260°N, 78.4400°W)
Time: 13:28:03
(UTC-04:00)

Amateur Radio Satellites - All Passes

Search period start: 16 September 2014 12:58
Search period end: 17 September 2014 12:58
Location: Big Meadows, 38.5260°N, 78.4400°W

Satellite Date Start Highest point End Downlink Frequencies (MHz)
Time Altitude Azimuth
Sapphire 16 Sep 13:09:01 13:14:12 50° 112° (ESE) 13:19:25 437.095 MHz 1200 baud AX-25 AFSK
JAS-1B 16 Sep 13:10:29 13:17:15 27° 64° (ENE) 13:23:13 435.800 - 435.900 CW/SSB
Oscar 19 16 Sep 13:11:31 13:15:58 30° 68° (ENE) 13:20:26 437.125 CW, 437.150 USB
AO-27 16 Sep 13:21:50 13:24:59 17° 63° (ENE) 13:28:09 436.795 MHz FM
PCSat 16 Sep 13:36:11 13:41:35 86° 297° (WNW) 13:47:03 145.825 MHz
Oscar 16 16 Sep 13:48:50 13:53:59 70° 74° (ENE) 13:59:10 437.025 USB, Beacon 2401.1428
Gurwin Techsat 1B 16 Sep 13:54:13 13:57:16 16° 62° (ENE) 14:00:19 435.225 FM
ITAMSAT 1 16 Sep 14:24:49 14:29:54 64° 73° (ENE) 14:35:02 435.822 SSB
Uribyol 2 16 Sep 14:29:54 14:35:02 76° 75° (ENE) 14:40:13 436.500 FM
AO-Echo 16 Sep 14:31:14 14:36:02 84° 76° (ENE) 14:40:46 ?
TMSAT-1 16 Sep 14:32:10 14:36:26 26° 66° (ENE) 14:40:43 436.925 FM
RS-15 16 Sep 14:38:22 14:49:34 84° 59° (ENE) 15:01:13 29.354 - 29.394 USB, Beacon 29.352 USB
Oscar 19 16 Sep 14:50:38 14:55:12 31° 264° (W) 14:59:48 437.125 CW, 437.150 USB
Sapphire 16 Sep 14:53:36 14:57:53 24° 310° (NW) 15:02:12 437.095 MHz 1200 baud AX-25 AFSK
JAS-1B 16 Sep 14:58:22 15:07:23 68° 257° (WSW) 15:15:00 435.800 - 435.900 CW/SSB
AO-27 16 Sep 14:58:54 15:03:59 60° 259° (W) 15:09:07 436.795 MHz FM
PCSat 16 Sep 15:22:59 15:25:49 14° 317° (NW) 15:28:40 145.825 MHz
Gurwin Techsat 1B 16 Sep 15:31:23 15:36:39 66° 258° (WSW) 15:41:56 435.225 FM
Oscar 16 16 Sep 15:31:37 15:33:48 13° 270° (W) 15:36:00 437.025 USB, Beacon 2401.1428
Uosat F 16 Sep 15:39:36 15:43:04 19° 64° (ENE) 15:46:32 435.120 FM
AO-7 16 Sep 15:42:59 15:50:36 42° 63° (ENE) 15:58:12 29.400 - 29.500 MHz
ITAMSAT 1 16 Sep 16:07:13 16:09:49 14° 269° (W) 16:12:26 435.822 SSB
TMSAT-1 16 Sep 16:11:15 16:16:08 38° 262° (W) 16:21:03 436.925 FM
Oscar 10/S400 16 Sep 16:12:40 16:30:12 36° 149° (SSE) 16:52:06 145.825 - 145.975 CW/USB, Beacon 145.810 USB
Uribyol 2 16 Sep 16:13:29 16:15:03 11° 270° (W) 16:16:37 436.500 FM
RS-15 16 Sep 16:52:30 17:00:37 24° 258° (WSW) 17:09:00 29.354 - 29.394 USB, Beacon 29.352 USB
JAS-1B 16 Sep 16:56:55 16:58:39 11° 271° (W) 17:00:21 435.800 - 435.900 CW/SSB
Uosat F 16 Sep 17:16:40 17:21:28 47° 260° (W) 17:26:18 435.120 FM
Hamsat 16 Sep 17:28:11 17:31:29 21° 68° (ENE) 17:34:48 145.90 MHz
Saudisat 1A 16 Sep 17:32:09 17:35:17 19° 111° (ESE) 17:38:26 436.775 MHz
AO-7 16 Sep 17:35:32 17:43:17 43° 260° (W) 17:51:05 29.400 - 29.500 MHz
JAS-2 16 Sep 17:50:47 17:55:54 45° 72° (ENE) 18:00:49 435.800 - 435.900 CW/SSB, 435.910 FM
OPAL 16 Sep 18:06:58 18:12:11 85° 106° (ESE) 18:17:18 ?
MaSat-1 16 Sep 18:12:45 18:14:49 14° 49° (NE) 18:16:44 437.345 MHz
STRAND 1 16 Sep 18:44:47 18:46:37 12° 90° (E) 18:48:28 ?
Hamsat 16 Sep 19:03:21 19:07:14 31° 263° (W) 19:11:09 145.90 MHz
Saudisat 1A 16 Sep 19:10:25 19:14:34 40° 307° (NW) 19:18:44 436.775 MHz
JAS-2 16 Sep 19:37:34 19:41:15 19° 266° (W) 19:44:50 435.800 - 435.900 CW/SSB, 435.910 FM
SO-67 16 Sep 19:43:22 19:46:48 74° 258° (WSW) 19:50:16 435.3500 MHz FM
KITSAT 1 16 Sep 19:46:28 19:53:52 41° 109° (ESE) 20:01:16 435.175 FM
OPAL 16 Sep 19:48:18 19:50:17 12° 302° (WNW) 19:52:16 ?
MaSat-1 16 Sep 19:48:21 19:51:57 39° 252° (WSW) 19:55:01 437.345 MHz
HO-68 16 Sep 20:10:25 20:16:09 27° 61° (ENE) 20:21:54 435.675 MHz FM
STRAND 1 16 Sep 20:21:11 20:26:18 73° 286° (WNW) 20:31:24 ?
AO-40 16 Sep 20:23:30 02:11:33 44° 183° (S) 10:08:09 Beacon 2401.320
UKube-1 16 Sep 20:40:41 20:42:20 12° 63° (ENE) 20:43:59 145.840 MHz, 145.915 MHz
KITSAT 1 16 Sep 21:41:30 21:49:09 45° 308° (NW) 21:56:51 435.175 FM
FUNcube-1 16 Sep 21:43:06 21:45:46 16° 65° (ENE) 21:48:28 145.950 - 145.970 MHz USB
HO-68 16 Sep 21:56:25 22:03:24 57° 258° (WSW) 22:10:25 435.675 MHz FM
Sapphire 16 Sep 21:58:33 22:03:22 31° 53° (NE) 22:08:08 437.095 MHz 1200 baud AX-25 AFSK
Oscar 11 16 Sep 22:00:15 22:04:32 62° 75° (ENE) 22:08:52 145.825 FM, Beacon 2401.500 USB
UKube-1 16 Sep 22:13:44 22:18:00 60° 259° (WSW) 22:22:18 145.840 MHz, 145.915 MHz
SO-50 16 Sep 22:23:18 22:25:28 13° 108° (ESE) 22:27:39 436.795 FM
PCSat 16 Sep 22:25:39 22:30:59 55° 59° (ENE) 22:36:17 145.825 MHz
FUNcube-1 16 Sep 23:17:35 23:21:44 45° 261° (W) 23:26:01 145.950 - 145.970 MHz USB
Oscar 11 16 Sep 23:40:21 23:41:06 10° 270° (W) 23:41:51 145.825 FM, Beacon 2401.500 USB
Sapphire 16 Sep 23:41:52 23:46:47 36° 250° (WSW) 23:51:40 437.095 MHz 1200 baud AX-25 AFSK
KITSAT 1 16 Sep 23:43:36 23:46:59 13° 333° (NNW) 23:50:23 435.175 FM
SO-50 17 Sep 00:01:04 00:05:28 58° 304° (NW) 00:10:00 436.795 FM
PCSat 17 Sep 00:10:14 00:13:55 19° 255° (WSW) 00:17:35 145.825 MHz
UOSAT-12 17 Sep 00:17:46 00:20:43 17° 109° (ESE) 00:23:43 437.025 FM, 437.400 FM
Oscar 19 17 Sep 01:26:59 01:28:16 11° 89° (E) 01:29:33 437.125 CW, 437.150 USB
UOSAT-12 17 Sep 01:55:57 02:00:26 50° 305° (NW) 02:05:01 437.025 FM, 437.400 FM
Saudisat 1A 17 Sep 02:00:11 02:02:25 14° 42° (NE) 02:04:39 436.775 MHz
Oscar 16 17 Sep 02:02:36 02:07:00 28° 96° (E) 02:11:22 437.025 USB, Beacon 2401.1428
ITAMSAT 1 17 Sep 02:39:44 02:44:01 26° 95° (E) 02:48:17 435.822 SSB
AO-Echo 17 Sep 02:39:56 02:44:08 29° 97° (E) 02:48:25 ?
Uribyol 2 17 Sep 02:44:31 02:49:06 30° 97° (E) 02:53:39 436.500 FM
JAS-1B 17 Sep 02:46:42 02:51:51 33° 97° (E) 02:56:55 435.800 - 435.900 CW/SSB
TMSAT-1 17 Sep 02:52:09 02:52:50 10° 89° (E) 02:53:30 436.925 FM
RS-15 17 Sep 02:58:52 03:00:25 10° 95° (E) 03:01:57 29.354 - 29.394 USB, Beacon 29.352 USB
Oscar 19 17 Sep 03:02:59 03:08:10 78° 285° (WNW) 03:13:18 437.125 CW, 437.150 USB
AO-27 17 Sep 03:13:19 03:18:26 55° 101° (E) 03:23:32 436.795 MHz FM
PANSAT 17 Sep 03:34:33 03:36:30 14° 168° (SSE) 03:38:28 not established
Saudisat 1A 17 Sep 03:38:07 03:42:33 78° 240° (WSW) 03:46:56 436.775 MHz
KITSAT 1 17 Sep 03:41:25 03:46:50 19° 36° (NE) 03:52:13 435.175 FM
Oscar 16 17 Sep 03:41:44 03:46:20 33° 291° (WNW) 03:50:53 437.025 USB, Beacon 2401.1428
OPAL 17 Sep 03:44:10 03:47:15 16° 60° (ENE) 03:50:22 ?
Gurwin Techsat 1B 17 Sep 03:49:04 03:54:19 57° 101° (E) 03:59:31 435.225 FM
AO-7 17 Sep 03:49:34 03:52:09 12° 88° (E) 03:54:43 29.400 - 29.500 MHz
ISS 17 Sep 04:03:27 04:06:45 73° 139° (SE) 04:10:05 145.800 FM
AO-Echo 17 Sep 04:18:45 04:22:49 28° 291° (WNW) 04:26:58 ?
ITAMSAT 1 17 Sep 04:18:49 04:23:33 36° 291° (WNW) 04:28:16 435.822 SSB
Uribyol 2 17 Sep 04:23:57 04:28:29 31° 292° (WNW) 04:33:01 436.500 FM
TMSAT-1 17 Sep 04:28:02 04:33:21 85° 284° (WNW) 04:38:39 436.925 FM
JAS-1B 17 Sep 04:37:34 04:42:28 29° 295° (WNW) 04:47:14 435.800 - 435.900 CW/SSB
AO-27 17 Sep 04:54:05 04:57:29 18° 297° (WNW) 05:00:53 436.795 MHz FM
RS-15 17 Sep 04:59:35 05:10:28 64° 114° (ESE) 05:21:09 29.354 - 29.394 USB, Beacon 29.352 USB
PANSAT 17 Sep 05:13:21 05:16:02 18° 180° (S) 05:18:43 not established
OPAL 17 Sep 05:20:27 05:25:34 64° 256° (WSW) 05:30:45 ?
Uosat F 17 Sep 05:25:34 05:30:32 59° 101° (ESE) 05:35:28 435.120 FM
Gurwin Techsat 1B 17 Sep 05:30:19 05:33:47 18° 297° (WNW) 05:37:15 435.225 FM
KITSAT 1 17 Sep 05:35:40 05:43:45 72° 59° (ENE) 05:51:47 435.175 FM
AO-7 17 Sep 05:37:52 05:46:11 73° 106° (ESE) 05:54:26 29.400 - 29.500 MHz
ISS 17 Sep 05:41:25 05:43:48 18° 336° (NNW) 05:46:11 145.800 FM
Oscar 10/S400 17 Sep 05:48:41 06:16:43 11° 258° (WSW) 06:52:44 145.825 - 145.975 CW/USB, Beacon 145.810 USB
STRAND 1 17 Sep 05:59:02 06:02:07 16° 63° (ENE) 06:05:13 ?
TMSAT-1 17 Sep 06:11:27 06:12:25 11° 301° (WNW) 06:13:24 436.925 FM
JAS-2 17 Sep 06:44:02 06:49:50 51° 100° (E) 06:56:21 435.800 - 435.900 CW/SSB, 435.910 FM
Hamsat 17 Sep 06:50:07 06:54:16 49° 99° (E) 06:58:21 145.90 MHz
PANSAT 17 Sep 06:53:43 06:55:34 13° 193° (SSW) 06:57:24 not established
SO-50 17 Sep 06:55:08 06:57:19 13° 40° (NE) 06:59:30 436.795 FM
Uosat F 17 Sep 07:05:50 07:08:48 16° 297° (WNW) 07:11:47 435.120 FM
RS-15 17 Sep 07:13:23 07:23:24 39° 317° (NW) 07:33:26 29.354 - 29.394 USB, Beacon 29.352 USB
AO-7 17 Sep 07:31:52 07:38:11 25° 304° (NW) 07:44:31 29.400 - 29.500 MHz
KITSAT 1 17 Sep 07:32:25 07:38:21 23° 257° (WSW) 07:44:16 435.175 FM
STRAND 1 17 Sep 07:35:49 07:40:48 58° 259° (W) 07:45:50 ?
Hamsat 17 Sep 08:27:39 08:29:46 14° 295° (WNW) 08:31:53 145.90 MHz
JAS-2 17 Sep 08:30:00 08:34:39 25° 293° (WNW) 08:39:44 435.800 - 435.900 CW/SSB, 435.910 FM
SO-50 17 Sep 08:33:46 08:38:37 83° 59° (ENE) 08:43:29 436.795 FM
SO-67 17 Sep 08:41:19 08:44:40 48° 285° (WNW) 08:47:59 435.3500 MHz FM
UOSAT-12 17 Sep 08:48:19 08:50:43 14° 41° (NE) 08:53:06 437.025 FM, 437.400 FM
ISS 17 Sep 08:57:55 08:59:34 13° 17° (NNE) 09:01:13 145.800 FM
HO-68 17 Sep 09:26:00 09:32:11 31° 96° (E) 09:38:20 435.675 MHz FM
MaSat-1 17 Sep 09:31:19 09:36:20 90° 290° (WNW) 09:41:23 437.345 MHz
RS-15 17 Sep 09:33:45 09:40:13 17° 350° (N) 09:46:44 29.354 - 29.394 USB, Beacon 29.352 USB
Oscar 11 17 Sep 09:51:17 09:53:12 13° 91° (E) 09:55:06 145.825 FM, Beacon 2401.500 USB
UKube-1 17 Sep 10:03:52 10:07:27 25° 96° (E) 10:11:01 145.840 MHz, 145.915 MHz
SO-50 17 Sep 10:17:35 10:18:30 11° 254° (WSW) 10:19:25 436.795 FM
UOSAT-12 17 Sep 10:26:47 10:31:32 88° 238° (WSW) 10:36:11 437.025 FM, 437.400 FM
ISS 17 Sep 10:33:37 10:36:53 54° 36° (NE) 10:40:09 145.800 FM
FUNcube-1 17 Sep 11:08:01 11:12:22 39° 98° (E) 11:16:40 145.950 - 145.970 MHz USB
MaSat-1 17 Sep 11:11:28 11:13:48 13° 311° (NW) 11:16:07 437.345 MHz
HO-68 17 Sep 11:13:13 11:20:02 48° 293° (WNW) 11:26:50 435.675 MHz FM
Oscar 11 17 Sep 11:25:26 11:29:40 51° 286° (WNW) 11:33:51 145.825 FM, Beacon 2401.500 USB
UKube-1 17 Sep 11:39:55 11:43:35 27° 291° (WNW) 11:47:14 145.840 MHz, 145.915 MHz
RS-15 17 Sep 11:50:13 11:58:30 23° 27° (NNE) 12:06:56 29.354 - 29.394 USB, Beacon 29.352 USB
ISS 17 Sep 12:11:24 12:13:17 14° 231° (SW) 12:15:09 145.800 FM
Sapphire 17 Sep 12:38:59 12:43:51 36° 110° (ESE) 12:48:46 437.095 MHz 1200 baud AX-25 AFSK
Oscar 19 17 Sep 12:41:43 12:44:45 16° 63° (ENE) 12:47:46 437.125 CW, 437.150 USB
FUNcube-1 17 Sep 12:45:08 12:48:27 20° 293° (WNW) 12:51:44 145.950 - 145.970 MHz USB
